Content
SEND FEEDBACK

Daily
Averages
Monthly
Summary
France

LE HAVRE, FRANCE


Home > Europe > France
Elevation: 338 feet     Latitude: 49 31N     Longitude: 000 04E

WEATHER
 
SELECT A DAY
Number of Records: 176,174;   Date Range: 3/4/97 - 7/30/14
 
SHARE

PRINT THIS DATA

[ ← Previous Day ]
WEATHER ALMANAC - APRIL 5, 2013
[ Next Day → ]
[ °C ]   °F
Weather ElementAverageHighLow
Temperature36.6 °F37.4 °F (12:30 am)35.6 °F (5:00 am)
Dewpoint33.1 °F35.6 °F (3:30 pm)30.2 °F (12:30 am)
Humidity87.3 %93 % (6:00 am)75 % (12:30 am)
Barometer29.82 in30.01 in (11:00 pm)29.74 in (3:00 am)
Wind Speed17.4 mph20.7 mph (1:00 am)
Weather ElementAverage
Visibility2.4 mi
Wind DirectionNE (40.2 °)

Weather ElementTotal
Precipitation---
Heating Degree Days28.5 (Base 65)
Averaged from 47 records on April 5, 2013
WEATHER CONDITIONS BREAKOUT
WIND DIRECTION BREAKOUT
WEATHER BY HOUR - APRIL 5, 2013
[ °C ]   °F
Local TimeTemperatureDewpointHumidityBarometerVisibilityWind DirectionWind SpeedGust SpeedPrecipitationEventsConditions
12:30 AM37.4 °F30.2 °F75 %29.77 in3.1 miNE (40°)17.3 mphOvercast
1:00 AM37.4 °F30.2 °F75 %29.77 in3.1 miNE (40°)20.7 mphOvercast
1:30 AM37.4 °F30.2 °F75 %29.77 in3.1 miNE (40°)18.4 mphOvercast
2:00 AM37.4 °F30.2 °F75 %29.77 in3.1 miNNE (30°)18.4 mphOvercast
2:30 AM37.4 °F30.2 °F75 %29.77 in3.1 miNNE (30°)19.6 mphOvercast
3:00 AM37.4 °F30.2 °F75 %29.74 in3.1 miNNE (30°)16.1 mphOvercast
3:30 AM37.4 °F30.2 °F75 %29.74 in3.1 miNE (40°)19.6 mphRainLight Rain
4:00 AM37.4 °F30.2 °F75 %29.74 in3.1 miNE (40°)17.3 mphRainLight Rain
4:30 AM37.4 °F32.0 °F81 %29.74 inNE (40°)15.0 mphRainLight Rain
5:00 AM35.6 °F32.0 °F87 %29.74 in1.7 miNE (40°)16.1 mphRainLight Rain
5:30 AM35.6 °F32.0 °F87 %29.74 inNE (40°)12.7 mphRainLight Rain
6:00 AM35.6 °F33.8 °F93 %29.74 in1.7 miNE (40°)13.8 mphRainLight Rain
6:30 AM35.6 °F33.8 °F93 %29.74 in1.6 miNE (50°)15.0 mphRainLight Rain
7:00 AM35.6 °F33.8 °F93 %29.74 in1.3 miNE (40°)16.1 mphRainLight Rain
7:30 AM35.6 °F33.8 °F93 %29.74 in1.2 miNE (40°)16.1 mphRainLight Rain
8:00 AM35.6 °F33.8 °F93 %29.74 in1.1 miNNE (30°)16.1 mphRainLight Rain
8:30 AM37.4 °F33.8 °F87 %29.74 in1.4 miNE (40°)17.3 mphRainLight Rain
9:00 AM37.4 °F33.8 °F87 %29.77 in1.4 miNE (40°)20.7 mphRainLight Rain
9:30 AM37.4 °F33.8 °F87 %29.77 in1.5 miNE (40°)18.4 mphRainLight Rain
10:00 AM37.4 °F33.8 °F87 %29.77 in1.4 miNE (40°)19.6 mphRainRain
10:30 AM37.4 °F33.8 °F87 %29.77 in1.4 miNNE (30°)19.6 mphRainLight Rain
11:00 AM37.4 °F33.8 °F87 %29.77 in1.4 miNE (40°)19.6 mphRainLight Rain
11:30 AM37.4 °F33.8 °F87 %29.80 in1.2 miNE (40°)17.3 mphRainRain
12:00 PM35.6 °F33.8 °F93 %29.80 in1.3 miNNE (30°)18.4 mphRainLight Rain
12:30 PM35.6 °F33.8 °F93 %29.80 in1.2 miNNE (30°)18.4 mphRainLight Rain
1:00 PM37.4 °F33.8 °F87 %29.80 in1.7 miNE (40°)19.6 mphRainRain
1:30 PM37.4 °F33.8 °F87 %29.80 inNE (40°)18.4 mphRainLight Rain
2:00 PM37.4 °F33.8 °F87 %29.80 inNE (40°)20.7 mphRainLight Rain
2:30 PM37.4 °F33.8 °F87 %29.83 in1.6 miNE (40°)19.6 mphRainLight Rain
3:00 PM37.4 °F33.8 °F87 %29.83 in1.6 miNE (40°)19.6 mphRainLight Rain
3:30 PM37.4 °F35.6 °F93 %29.83 inNE (40°)16.1 mphRainLight Rain
4:00 PM37.4 °F33.8 °F87 %29.83 inNE (50°)17.3 mphRainLight Rain
4:30 PM37.4 °F33.8 °F87 %29.83 inNE (50°)17.3 mphRainLight Rain
5:00 PM37.4 °F35.6 °F93 %29.86 in1.7 miNE (40°)17.3 mphRainLight Rain
5:30 PM37.4 °F33.8 °F87 %29.86 inNE (40°)20.7 mphRainLight Rain
6:00 PM35.6 °F33.8 °F93 %29.86 inNE (40°)19.6 mphRainLight Rain
6:30 PM35.6 °F33.8 °F93 %29.89 inNE (40°)18.4 mphRainLight Rain
7:00 PM35.6 °F33.8 °F93 %29.89 inNE (40°)17.3 mphRainLight Rain
7:30 PM35.6 °F33.8 °F93 %29.92 inNE (40°)16.1 mphRainRain
8:00 PM35.6 °F33.8 °F93 %29.92 inNE (40°)16.1 mphRainLight Rain
8:30 PM35.6 °F33.8 °F93 %29.95 inNE (50°)15.0 mphRainLight Rain
9:00 PM35.6 °F33.8 °F93 %29.95 inNE (50°)11.5 mphRainLight Rain
9:30 PM35.6 °F33.8 °F93 %29.98 inNE (40°)13.8 mphRainLight Rain
10:00 PM35.6 °F33.8 °F93 %29.98 in3.7 miNE (50°)17.3 mphRainLight Rain
10:30 PM35.6 °F33.8 °F93 %29.98 in6.2 miNE (40°)17.3 mphMostly Cloudy
11:00 PM35.6 °F32.0 °F87 %30.01 in6.2 miNE (50°)16.1 mphMostly Cloudy
11:30 PM35.6 °F32.0 °F87 %30.01 in6.2 miNE (50°)15.0 mphOvercast
Hourly data recorded from LFOH, located miles away from Le Havre, France







STORIES FROM OUR PARTNERS